Volver al catálogo

TIANMU-1 17

ActivoMeteoSSO
NORAD 58702·PAYLOAD·🇨🇳 China

Lanzado Jan 5, 2024 desde Jiuquan Satellite Launch Center

Loading…

Próximos Pases (próximas 24 horas)

TLE

ActualizadoSource: Space-Track

Época: Sep 14, 2026, 23:18 UTC

1 58702U 24004C   26257.97103365  .00004960  00000-0  18680-3 0  9993
2 58702  97.4648  83.9014 0006534  50.9175 309.2645 15.27548551149479

Sigue TIANMU-1 17 en tiempo real con AllMySat

Download on the App Store